| time (UTC) | temp F | wind direction | speed knots | gust knots | rain 1hr in | rain 24hr in | rain mn in | humidity % | barometer mb |
| 20260504110308 | 61 | 84 | 0.0 | 0.0 | 0.00 | 0.00 | 0.00 | 100 | 1014.7 |
| 20260504100153 | 60 | 79 | 0.0 | 0.0 | 0.00 | 0.00 | 0.00 | 100 | 1015.0 |
| 20260504081949 | 61 | 84 | 0.0 | 1.7 | 0.00 | 0.00 | 0.00 | 100 | 1015.7 |
| 20260504081439 | 61 | 84 | 0.0 | 1.7 | 0.00 | 0.00 | 0.00 | 100 | 1015.6 |
| 20260504080937 | 61 | 78 | 0.0 | 1.7 | 0.00 | 0.00 | 0.00 | 100 | 1015.7 |
| 20260504080432 | 61 | 89 | 0.0 | 0.0 | 0.00 | 0.00 | 0.00 | 100 | 1015.7 |
| 20260504070319 | 61 | 76 | 0.0 | 0.0 | 0.00 | 0.00 | 0.00 | 100 | 1016.9 |
| 20260504060203 | 61 | 102 | 0.0 | 0.9 | 0.00 | 0.00 | 0.00 | 100 | 1017.5 |
| 20260504050557 | 62 | 111 | 0.0 | 0.9 | 0.00 | 0.00 | 0.00 | 100 | 1018.0 |
| 20260504045549 | 62 | 112 | 0.0 | 0.9 | 0.00 | 0.00 | 0.00 | 100 | 1018.3 |
| 20260504045044 | 62 | 112 | 0.0 | 0.0 | 0.00 | 0.00 | 0.00 | 100 | 1018.3 |
| 20260504044532 | 62 | 112 | 0.0 | 0.0 | 0.00 | 0.00 | 0.00 | 100 | 1018.2 |
| 20260504044031 | 62 | 109 | 0.0 | 0.0 | 0.00 | 0.00 | 0.00 | 100 | 1018.3 |
| 20260504043521 | 62 | 115 | 0.0 | 0.0 | 0.00 | 0.00 | 0.00 | 100 | 1018.3 |
| 20260504043014 | 62 | 115 | 0.0 | 0.9 | 0.00 | 0.00 | 0.00 | 100 | 1018.3 |
| 20260504042744 | 62 | 115 | 0.0 | 1.7 | 0.00 | 0.00 | 0.00 | 100 | 1018.3 |
| 20260504042239 | 62 | 124 | 0.0 | 1.7 | 0.00 | 0.00 | 0.00 | 100 | 1018.3 |
| 20260504041501 | 62 | 103 | 0.0 | 0.9 | 0.00 | 0.00 | 0.00 | 100 | 1018.3 |
| 20260504040949 | 62 | 102 | 0.0 | 0.9 | 0.00 | 0.00 | 0.00 | 100 | 1018.4 |
| 20260504035939 | 62 | 102 | 0.0 | 1.7 | 0.00 | 0.00 | 0.00 | 100 | 1018.3 |
| 20260504035433 | 62 | 107 | 0.0 | 0.0 | 0.00 | 0.00 | 0.00 | 100 | 1018.3 |
| 20260504034931 | 62 | 107 | 0.0 | 0.0 | 0.00 | 0.00 | 0.00 | 100 | 1018.3 |
| 20260504034431 | 62 | 89 | 0.0 | 0.0 | 0.00 | 0.00 | 0.00 | 100 | 1018.2 |
| 20260504033932 | 62 | 85 | 0.0 | 0.9 | 0.00 | 0.00 | 0.00 | 100 | 1018.3 |
| 20260504033702 | 63 | 85 | 0.0 | 0.9 | 0.00 | 0.00 | 0.00 | 100 | 1018.4 |
| 20260504032932 | 63 | 88 | 0.0 | 0.9 | 0.00 | 0.00 | 0.00 | 100 | 1018.3 |
| 20260504032432 | 63 | 88 | 0.0 | 0.0 | 0.00 | 0.00 | 0.00 | 100 | 1018.2 |
| 20260504031932 | 63 | 115 | 0.0 | 0.0 | 0.00 | 0.00 | 0.00 | 100 | 1018.3 |
| 20260504031431 | 63 | 115 | 0.0 | 0.0 | 0.00 | 0.00 | 0.00 | 100 | 1018.3 |
| 20260504030932 | 63 | 115 | 0.0 | 0.0 | 0.00 | 0.00 | 0.00 | 100 | 1018.3 |
| 20260504030433 | 63 | 115 | 0.0 | 0.0 | 0.00 | 0.00 | 0.00 | 100 | 1018.2 |
| 20260504025927 | 63 | 115 | 0.0 | 0.0 | 0.00 | 0.00 | 0.00 | 100 | 1018.0 |
| 20260504025428 | 63 | 117 | 0.0 | 0.0 | 0.00 | 0.00 | 0.00 | 100 | 1018.0 |
| 20260504025158 | 64 | 120 | 0.0 | 0.0 | 0.00 | 0.00 | 0.00 | 100 | 1018.0 |
| 20260504024428 | 64 | 113 | 0.0 | 0.0 | 0.00 | 0.00 | 0.00 | 100 | 1018.0 |
| 20260504023928 | 64 | 109 | 0.0 | 0.0 | 0.00 | 0.00 | 0.00 | 100 | 1017.9 |
| 20260504023428 | 64 | 109 | 0.0 | 1.7 | 0.00 | 0.00 | 0.00 | 100 | 1017.9 |
| 20260504022928 | 64 | 100 | 0.0 | 1.7 | 0.00 | 0.00 | 0.00 | 100 | 1017.9 |
| 20260504022428 | 65 | 109 | 0.0 | 0.0 | 0.00 | 0.00 | 0.00 | 3 | 1017.8 |
| 20260504021928 | 65 | 105 | 0.0 | 0.0 | 0.00 | 0.00 | 0.00 | 5 | 1017.8 |
| 20260504021422 | 65 | 110 | 0.0 | 0.0 | 0.00 | 0.00 | 0.00 | 8 | 1017.9 |
| 20260504020911 | 65 | 113 | 0.0 | 0.0 | 0.00 | 0.00 | 0.00 | 11 | 1017.9 |
| 20260504020359 | 66 | 109 | 0.0 | 0.0 | 0.00 | 0.00 | 0.00 | 14 | 1017.9 |
| 20260504020117 | 66 | 111 | 0.0 | 0.0 | 0.00 | 0.00 | 0.00 | 18 | 1017.8 |
| 20260504015340 | 66 | 111 | 0.0 | 0.0 | 0.00 | 0.00 | 0.00 | 22 | 1017.8 |
| 20260504014840 | 67 | 111 | 0.0 | 0.0 | 0.00 | 0.00 | 0.00 | 26 | 1017.9 |
| 20260504014340 | 67 | 111 | 0.0 | 0.0 | 0.00 | 0.00 | 0.00 | 32 | 1017.7 |
| 20260504013841 | 67 | 111 | 0.0 | 0.0 | 0.00 | 0.00 | 0.00 | 37 | 1017.9 |
| 20260504013340 | 67 | 120 | 0.0 | 1.7 | 0.00 | 0.00 | 0.00 | 42 | 1017.8 |
| 20260504012839 | 68 | 115 | 0.9 | 1.7 | 0.00 | 0.00 | 0.00 | 43 | 1017.7 |
| 20260504012610 | 68 | 128 | 0.9 | 1.7 | 0.00 | 0.00 | 0.00 | 46 | 1017.8 |
| 20260504011840 | 68 | 105 | 0.9 | 3.5 | 0.00 | 0.00 | 0.00 | 48 | 1017.8 |
| 20260504011340 | 69 | 115 | 2.6 | 4.3 | 0.00 | 0.00 | 0.00 | 50 | 1017.8 |
| 20260504010327 | 69 | 124 | 2.6 | 4.3 | 0.00 | 0.00 | 0.00 | 54 | 1017.9 |
| 20260504005816 | 70 | 128 | 3.5 | 7.0 | 0.00 | 0.00 | 0.00 | 55 | 1017.9 |
| 20260504005314 | 70 | 120 | 4.3 | 7.0 | 0.00 | 0.00 | 0.00 | 56 | 1017.9 |
| 20260504004808 | 71 | 129 | 5.2 | 7.8 | 0.00 | 0.00 | 0.00 | 57 | 1017.9 |
| 20260504004302 | 71 | 132 | 5.2 | 8.7 | 0.00 | 0.00 | 0.00 | 57 | 1017.9 |
| 20260504003752 | 71 | 134 | 6.1 | 9.6 | 0.00 | 0.00 | 0.00 | 57 | 1017.9 |
| 20260504002238 | 72 | 157 | 5.2 | 8.7 | 0.00 | 0.00 | 0.00 | 56 | 1017.9 |
| 20260504002003 | 72 | 131 | 4.3 | 10.4 | 0.00 | 0.00 | 0.00 | 56 | 1017.8 |
| 20260504001227 | 73 | 140 | 6.1 | 10.4 | 0.00 | 0.00 | 0.00 | 56 | 1017.7 |
| 20260504000721 | 73 | 129 | 6.1 | 9.6 | 0.00 | 0.00 | 0.00 | 54 | 1017.9 |
| 20260503235202 | 73 | 119 | 7.8 | 13.0 | 0.00 | 0.00 | 0.00 | 55 | 1018.0 |
| 20260503234929 | 73 | 152 | 8.7 | 13.0 | 0.00 | 0.00 | 0.00 | 54 | 1018.0 |
| 20260503234146 | 74 | 352 | 8.7 | 13.9 | 0.00 | 0.00 | 0.00 | 53 | 1017.9 |
| 20260503233645 | 74 | 132 | 6.1 | 13.9 | 0.00 | 0.00 | 0.00 | 54 | 1017.8 |
| 20260503233139 | 74 | 120 | 5.2 | 13.0 | 0.00 | 0.00 | 0.00 | 53 | 1017.9 |
| 20260503232633 | 74 | 149 | 7.8 | 13.9 | 0.00 | 0.00 | 0.00 | 52 | 1018.0 |
| 20260503232122 | 74 | 143 | 8.7 | 13.0 | 0.00 | 0.00 | 0.00 | 53 | 1017.9 |
| 20260503231620 | 74 | 145 | 8.7 | 14.8 | 0.00 | 0.00 | 0.00 | 53 | 1018.2 |
| 20260503231348 | 74 | 156 | 7.8 | 14.8 | 0.00 | 0.00 | 0.00 | 53 | 1018.2 |
| 20260503230833 | 74 | 140 | 7.8 | 13.9 | 0.00 | 0.00 | 0.00 | 52 | 1018.1 |
| 20260503225556 | 75 | 142 | 7.8 | 12.2 | 0.00 | 0.00 | 0.00 | 52 | 1018.2 |
| 20260503225050 | 75 | 91 | 8.7 | 13.0 | 0.00 | 0.00 | 0.00 | 51 | 1018.0 |
| 20260503224039 | 75 | 124 | 7.8 | 14.8 | 0.00 | 0.00 | 0.00 | 51 | 1018.2 |
| 20260503223532 | 75 | 134 | 8.7 | 14.8 | 0.00 | 0.00 | 0.00 | 51 | 1018.3 |
| 20260503223028 | 76 | 118 | 8.7 | 14.8 | 0.00 | 0.00 | 0.00 | 50 | 1018.4 |
| 20260503222520 | 76 | 134 | 7.8 | 14.8 | 0.00 | 0.00 | 0.00 | 51 | 1018.3 |
| 20260503222014 | 76 | 142 | 7.0 | 14.8 | 0.00 | 0.00 | 0.00 | 51 | 1018.3 |
| 20260503221508 | 76 | 128 | 7.0 | 13.9 | 0.00 | 0.00 | 0.00 | 51 | 1018.4 |
| 20260503220957 | 76 | 352 | 7.8 | 13.0 | 0.00 | 0.00 | 0.00 | 51 | 1018.5 |
| 20260503220451 | 76 | 122 | 8.7 | 13.9 | 0.00 | 0.00 | 0.00 | 51 | 1018.5 |
| 20260503215950 | 76 | 115 | 7.8 | 13.9 | 0.00 | 0.00 | 0.00 | 51 | 1018.7 |
| 20260503215444 | 76 | 133 | 7.8 | 13.0 | 0.00 | 0.00 | 0.00 | 52 | 1018.7 |
| 20260503214934 | 76 | 121 | 7.8 | 13.0 | 0.00 | 0.00 | 0.00 | 51 | 1018.7 |
| 20260503214433 | 76 | 352 | 8.7 | 13.0 | 0.00 | 0.00 | 0.00 | 51 | 1018.9 |
| 20260503213415 | 76 | 142 | 8.7 | 16.5 | 0.00 | 0.00 | 0.00 | 53 | 1018.9 |
| 20260503212915 | 76 | 145 | 8.7 | 16.5 | 0.00 | 0.00 | 0.00 | 53 | 1018.9 |
| 20260503212408 | 77 | 161 | 8.7 | 15.6 | 0.00 | 0.00 | 0.00 | 53 | 1019.0 |
| 20260503211903 | 77 | 184 | 8.7 | 15.6 | 0.00 | 0.00 | 0.00 | 53 | 1019.3 |
| 20260503211623 | 77 | 352 | 9.6 | 16.5 | 0.00 | 0.00 | 0.00 | 53 | 1019.2 |
| 20260503210850 | 77 | 156 | 9.6 | 16.5 | 0.00 | 0.00 | 0.00 | 53 | 1019.2 |
| 20260503210615 | 77 | 176 | 9.6 | 14.8 | 0.00 | 0.00 | 0.00 | 53 | 1019.4 |
| 20260503205834 | 77 | 180 | 9.6 | 16.5 | 0.00 | 0.00 | 0.00 | 53 | 1019.4 |
| 20260503205327 | 77 | 167 | 8.7 | 16.5 | 0.00 | 0.00 | 0.00 | 53 | 1019.4 |
| 20260503204827 | 77 | 144 | 7.8 | 16.5 | 0.00 | 0.00 | 0.00 | 53 | 1019.4 |
| 20260503204320 | 77 | 162 | 7.8 | 13.0 | 0.00 | 0.00 | 0.00 | 53 | 1019.7 |
| 20260503203814 | 77 | 175 | 8.7 | 13.0 | 0.00 | 0.00 | 0.00 | 53 | 1019.7 |
| 20260503203308 | 77 | 142 | 8.7 | 16.5 | 0.00 | 0.00 | 0.00 | 52 | 1019.7 |
| 20260503202802 | 77 | 123 | 7.8 | 16.5 | 0.00 | 0.00 | 0.00 | 50 | 1019.8 |
| 20260503202256 | 78 | 352 | 6.1 | 12.2 | 0.00 | 0.00 | 0.00 | 51 | 1019.7 |
| 20260503201744 | 78 | 117 | 7.0 | 13.9 | 0.00 | 0.00 | 0.00 | 51 | 1019.7 |
| 20260503201244 | 78 | 126 | 7.0 | 13.9 | 0.00 | 0.00 | 0.00 | 49 | 1019.9 |
| 20260503200738 | 78 | 147 | 6.1 | 13.0 | 0.00 | 0.00 | 0.00 | 50 | 1020.0 |
| 20260503200232 | 78 | 131 | 7.0 | 13.0 | 0.00 | 0.00 | 0.00 | 47 | 1019.9 |
| 20260503195722 | 78 | 136 | 7.0 | 13.0 | 0.00 | 0.00 | 0.00 | 49 | 1020.2 |
| 20260503195451 | 78 | 118 | 5.2 | 10.4 | 0.00 | 0.00 | 0.00 | 46 | 1020.2 |
| 20260503194715 | 78 | 93 | 6.1 | 13.0 | 0.00 | 0.00 | 0.00 | 47 | 1020.2 |
| 20260503194203 | 79 | 352 | 7.0 | 13.0 | 0.00 | 0.00 | 0.00 | 47 | 1020.3 |
| 20260503193933 | 78 | 352 | 5.2 | 10.4 | 0.00 | 0.00 | 0.00 | 48 | 1020.4 |
| 20260503192650 | 78 | 152 | 1.7 | 11.3 | 0.00 | 0.00 | 0.00 | 46 | 1020.4 |
| 20260503192139 | 78 | 148 | 4.3 | 11.3 | 0.00 | 0.00 | 0.00 | 47 | 1020.4 |
| 20260503191638 | 78 | 101 | 4.3 | 11.3 | 0.00 | 0.00 | 0.00 | 45 | 1020.5 |
| 20260503191132 | 78 | 130 | 2.6 | 11.3 | 0.00 | 0.00 | 0.00 | 44 | 1020.6 |
| 20260503190626 | 78 | 146 | 2.6 | 11.3 | 0.00 | 0.00 | 0.00 | 46 | 1020.7 |
| 20260503190116 | 78 | 106 | 1.7 | 9.6 | 0.00 | 0.00 | 0.00 | 44 | 1020.8 |
| 20260503185845 | 78 | 114 | 2.6 | 9.6 | 0.00 | 0.00 | 0.00 | 44 | 1020.8 |
| 20260503185108 | 78 | 36 | 4.3 | 9.6 | 0.00 | 0.00 | 0.00 | 44 | 1020.8 |
| 20260503184834 | 78 | 123 | 4.3 | 11.3 | 0.00 | 0.00 | 0.00 | 45 | 1020.9 |
| 20260503184057 | 78 | 142 | 4.3 | 11.3 | 0.00 | 0.00 | 0.00 | 43 | 1021.0 |
| 20260503183550 | 78 | 145 | 2.6 | 9.6 | 0.00 | 0.00 | 0.00 | 41 | 1021.1 |
| 20260503183041 | 78 | 63 | 0.9 | 7.0 | 0.00 | 0.00 | 0.00 | 40 | 1021.1 |
| 20260503182804 | 78 | 177 | 1.7 | 7.0 | 0.00 | 0.00 | 0.00 | 40 | 1021.3 |
| 20260503182033 | 78 | 21 | 0.9 | 7.0 | 0.00 | 0.00 | 0.00 | 39 | 1021.4 |
| 20260503181757 | 78 | 104 | 2.6 | 8.7 | 0.00 | 0.00 | 0.00 | 39 | 1021.4 |
| 20260503181020 | 78 | 111 | 3.5 | 8.7 | 0.00 | 0.00 | 0.00 | 38 | 1021.6 |
| 20260503180513 | 78 | 105 | 2.6 | 8.7 | 0.00 | 0.00 | 0.00 | 40 | 1021.6 |
| 20260503180013 | 78 | 107 | 3.5 | 9.6 | 0.00 | 0.00 | 0.00 | 40 | 1021.6 |
| 20260503175513 | 78 | 122 | 3.5 | 9.6 | 0.00 | 0.00 | 0.00 | 40 | 1021.6 |
| 20260503175014 | 77 | 142 | 3.5 | 8.7 | 0.00 | 0.00 | 0.00 | 39 | 1021.8 |
| 20260503174512 | 77 | 137 | 3.5 | 8.7 | 0.00 | 0.00 | 0.00 | 40 | 1021.9 |
| 20260503174011 | 77 | 126 | 2.6 | 8.7 | 0.00 | 0.00 | 0.00 | 41 | 1022.0 |
| 20260503173511 | 77 | 100 | 3.5 | 8.7 | 0.00 | 0.00 | 0.00 | 41 | 1022.1 |
| 20260503173009 | 78 | 352 | 2.6 | 8.7 | 0.00 | 0.00 | 0.00 | 41 | 1022.3 |
| 20260503172510 | 77 | 70 | 1.7 | 10.4 | 0.00 | 0.00 | 0.00 | 41 | 1022.3 |
| 20260503172009 | 77 | 95 | 2.6 | 10.4 | 0.00 | 0.00 | 0.00 | 41 | 1022.4 |
| 20260503171509 | 77 | 124 | 2.6 | 9.6 | 0.00 | 0.00 | 0.00 | 44 | 1022.4 |
| 20260503171240 | 76 | 129 | 3.5 | 9.6 | 0.00 | 0.00 | 0.00 | 42 | 1022.5 |
| 20260503170507 | 76 | 97 | 5.2 | 9.6 | 0.00 | 0.00 | 0.00 | 41 | 1022.6 |
| 20260503160154 | 75 | 129 | 1.7 | 7.0 | 0.00 | 0.00 | 0.00 | 49 | 1022.8 |
| 20260503150628 | 73 | 41 | 0.0 | 3.5 | 0.00 | 0.00 | 0.00 | 56 | 1022.6 |
| 20260503150128 | 73 | 72 | 0.0 | 3.5 | 0.00 | 0.00 | 0.00 | 55 | 1022.5 |
| 20260503131043 | 63 | 1 | 0.0 | 1.7 | 0.00 | 0.00 | 0.00 | 100 | 1022.1 |
| 20260503130533 | 62 | 343 | 0.0 | 1.7 | 0.00 | 0.00 | 0.00 | 100 | 1022.0 |